sat.trackr.live / text

‹ back to catalog

SKY MUSTER 2 (NBN1B)

NORAD 41794 · 2016-060B

PAYLOAD ACTIVE UNKNOWN

§ Identity

Operator
Country
AUS
Launch date
2016-10-05
Launch site
FRGUI
Launch vehicle
Mass (kg)
RCS (m²)
0.00

Purposes: comms

External: N2YO · Heavens-Above · Gunter

§ Orbital elements

Epoch: 2026-09-03T15:02:22.960896Z

Period
1,436.10 min
Inclination
0.0128°
Eccentricity
0.0001634
Mean motion
1.00271383 rev/d
Perigee alt
35,779.8 km
Apogee alt
35,793.6 km
Semi-major
42,164.8 km
B*
0.0000e+0
RAAN
214.7106°
Arg perigee
316.2473°
Mean anomaly
182.2056°
Rev number
3,630

§ Raw data

SKY MUSTER 2 (NBN1B)1 41794U 16060B   26246.62665464 -.00000247  00000+0  00000+0 0  99992 41794   0.0128 214.7106 0001634 316.2473 182.2056  1.00271383 36300

JSON: /api/v1/satellites/41794 · /tle

For live sub-satellite position, see the globe view (requires WebGL).

§ Visibility from observer

Set your observer location to see the next 7 days of passes ≥ 10°. The values pass through the URL so the page stays shareable.

No JS? Fill the form by hand. The geolocation button needs JavaScript.